Location: Roanoke
(37.2710°N, 79.9420°W)
Time: 05:17:52
(UTC-05:00)

Courier 1B Rocket - Pass Details

Date: 19 November 2019
Orbit: 920 x 1202 km, 28.2° (Epoch: 09 December)

Event Time Altitude Azimuth Distance (km) Brightness Sun altitude
Rises 18:30:13 0° 263° (W) 3,951 10.0 -16.5°
Reaches altitude 10° 18:33:11 10° 255° (WSW) 3,028 8.9 -17.1°
Maximum altitude 18:39:56 36° 192° (SSW) 1,765 6.5 -18.4°
Enters shadow 18:46:22 12° 131° (SE) 2,965 7.2 -19.7°
Drops below altitude 10° 18:46:55 10° 129° (SE) 3,124 - -19.8°
Sets 18:50:01 0° 121° (ESE) 4,090 - -20.4°
